Regional Weather Roundup
Issued by NWS

Home | Current Version | Previous Version | Graphics & Text | Print | Product List | Glossary On
Versions: 1 2 3 4 5 6 7 8 9 10 11 12 13 14 15 16 17 18 19 20 21 22 23 24 25 26 27 28 29 30 31 32 33 34 35 36 37 38 39 40 41 42 43 44 45 46 47 48 49 50
000
ASUS43 KBIS 230602
RWRND

NORTH DAKOTA REGIONAL WEATHER ROUNDUP
NATIONAL WEATHER SERVICE BISMARCK ND
100 AM CDT SUN JUL 23 2017

NOTE: "FAIR" INDICATES FEW OR NO CLOUDS BELOW 12,000 FEET WITH NO
SIGNIFICANT WEATHER AND/OR OBSTRUCTIONS TO VISIBILITY.


NDZ001>003-009>011-017-230700-
NORTHWEST NORTH DAKOTA

CITY           SKY/WX    TMP DP  RH WIND       PRES   REMARKS
WILLISTON      CLEAR     64  52  64 N5        30.05S
6HR MIN TEMP:  60; 6HR MAX TEMP:  85;

MINOT          CLEAR     58  53  84 NW6       30.03S
MINOT AFB      CLEAR     55  52  90 NW6       30.02S
$$

NDZ018>021-031>035-040>046-230700-
SOUTHWEST NORTH DAKOTA

CITY           SKY/WX    TMP DP  RH WIND       PRES   REMARKS
BISMARCK       CLEAR     65  55  70 N3        30.04R
6HR MIN TEMP:  64; 6HR MAX TEMP:  84;

DICKINSON      CLEAR     61  50  67 E3        30.06R
GARRISON         N/A     57  54  89 N5        30.03S
6HR MIN TEMP:  57; 6HR MAX TEMP:  80;

HETTINGER ARPT CLEAR     59  49  69 NE6       30.09R
$$

NDZ004>008-012>016-024-026-027-054-230700-
NORTHEAST NORTH DAKOTA

CITY           SKY/WX    TMP DP  RH WIND       PRES   REMARKS
GRAND FORKS    CLEAR     63  60  90 NW9       29.91R
GRND FRKS AFB  CLEAR     60  59  94 NW8       29.92S
DEVILS LAKE    CLEAR     62  58  86 N10       29.99R
$$

NDZ022-023-025-028>030-036>039-047>053-230700-
SOUTHEAST NORTH DAKOTA

CITY           SKY/WX    TMP DP  RH WIND       PRES   REMARKS
FARGO          CLEAR     61  58  90 W8        29.91R
6HR MIN TEMP:  61; 6HR MAX TEMP:  82;

JAMESTOWN      CLEAR     61  57  87 NW5       29.97S
$$





USA.gov is the U.S. government's official web portal to all federal, state and local government web resources and services.